Weather History for Argentia, NL

Change the Weather History Date:

Monday, February 4, 2013

  Actual Average Record
Temperature  
Mean Temperature 40 °F -  
Max Temperature 50 °F - - ()
Min Temperature 31 °F - - ()
Degree Days  
Heating Degree Days 24    
Moisture  
Dew Point 34 °F    
Average Humidity 83    
Maximum Humidity 94    
Minimum Humidity 61    
Precipitation  
Precipitation 0.75 in - - ()
Sea Level Pressure  
Sea Level Pressure 29.36 in    
Wind  
Wind Speed 32 mph ()    
Max Wind Speed 48 mph    
Max Gust Speed 64 mph    
T = Trace of Precipitation, MM = Missing Value Source: Averaged Metar Reports

Daily Weather History Graph

Daily Weather History Graph

Search for Another Location

Airport:

Trip Planner

Search our weather history database for the weather conditions in past years. The results will help you decide how hot, cold, wet, or windy it might be!

Date:

Astronomy

Feb. 04, 2013 Rise Set
Actual Time 7:27 AM NST 5:13 PM NST
Civil Twilight 6:54 AM NST 5:45 PM NST
Nautical Twilight 6:18 AM NST 6:22 PM NST
Astronomical Twilight 5:42 AM NST 6:57 PM NST
Moon 2:01 AM NST (2/4) 11:26 AM NST (2/4)
Length of Visible Light 10h 50m
Length of Day
9h 45m
Last Quarter, 38% of the Moon is Illuminated
Feb 4
Last Quarter
Feb 10
New
Feb 17
First Quarter
Feb 25
Full
Mar 4
Last Quarter

Hourly Weather History & Observations

Time (NST) Temp. Windchill Dew Point Humidity Pressure Visibility Wind Dir Wind Speed Gust Speed Precip Events Conditions
12:30 AM 34.5 °F 20.4 °F 28.8 °F 79% 30.02 in - SE 33.4 mph 43.7 mph N/A   Unknown
1:30 AM 34.9 °F 20.7 °F 28.6 °F 78% 30.02 in - SE 34.5 mph 46.0 mph N/A   Unknown
2:30 AM 35 °F - 28 °F 66% 29.94 in - SE 29.9 mph - -  
2:30 AM 35.1 °F 21.8 °F 27.7 °F 74% 29.94 in - SE 29.9 mph 41.4 mph N/A   Unknown
3:30 AM 35.2 °F 21.2 °F 27.9 °F 74% 29.88 in - ESE 34.5 mph 42.6 mph N/A   Unknown
4:30 AM 35.8 °F 21.9 °F 29.8 °F 79% 29.83 in - SE 34.5 mph 42.6 mph N/A   Unknown
5:30 AM 37 °F - 33 °F 80% 29.75 in - ESE 32.2 mph - -  
5:30 AM 36.9 °F 23.8 °F 33.1 °F 86% 29.75 in - ESE 32.2 mph 42.6 mph N/A   Unknown
7:30 AM 38.3 °F 26.2 °F 36.5 °F 93% 29.60 in - ESE 29.9 mph 39.1 mph N/A   Unknown
8:30 AM 40 °F - 38 °F 92% 29.47 in - ESE 32.2 mph - -  
8:30 AM 40.1 °F 28.2 °F 38.5 °F 94% 29.47 in - ESE 32.2 mph 47.2 mph 0.22 in   Unknown
9:30 AM 41.5 °F 30.0 °F 39.9 °F 94% 29.35 in - ESE 33.4 mph 46.0 mph 0.28 in   Unknown
10:30 AM 44.4 °F 34.3 °F 42.8 °F 94% 29.25 in - SE 31.1 mph 43.7 mph 0.20 in   Unknown
11:30 AM 48 °F - 46 °F 91% 29.12 in - SE 40.3 mph - -  
11:30 AM 48.0 °F - 46.2 °F 93% 29.12 in - SE 40.3 mph 57.5 mph 0.10 in   Unknown
12:30 PM 49.6 °F - 47.7 °F 93% 29.00 in - SSE 39.1 mph 56.4 mph 0.16 in   Unknown
1:30 PM 48.0 °F - 45.5 °F 91% 28.92 in - SSE 35.7 mph 54.1 mph N/A   Unknown
2:30 PM 48 °F - 43 °F 77% 28.91 in - South 40.3 mph - -  
2:30 PM 47.7 °F - 43.2 °F 84% 28.91 in - South 40.3 mph 62.1 mph N/A   Unknown
3:30 PM 42.8 °F 30.8 °F 38.5 °F 85% 28.94 in - South 40.3 mph 57.5 mph N/A   Unknown
4:30 PM 37.9 °F 23.0 °F 33.6 °F 84% 29.00 in - SSW 48.3 mph 64.4 mph N/A   Unknown
5:30 PM 36 °F - 33 °F 83% 29.07 in - SSW 40.3 mph - -  
5:30 PM 36.5 °F 22.0 °F 31.3 °F 81% 29.07 in - SSW 40.3 mph 56.4 mph N/A   Unknown
6:30 PM 35.8 °F 21.4 °F 31.6 °F 85% 29.13 in - SSW 38.0 mph 50.6 mph N/A   Unknown
7:30 PM 34.2 °F 19.5 °F 31.6 °F 90% 29.16 in - SSW 35.7 mph 50.6 mph N/A   Unknown
8:30 PM 33 °F - 29 °F 78% 29.20 in - SW 42.6 mph - -  
8:30 PM 33.4 °F 17.4 °F 28.8 °F 83% 29.20 in - SW 42.6 mph 54.1 mph N/A   Unknown
9:30 PM 31.8 °F 15.5 °F 27.1 °F 83% 29.26 in - WSW 40.3 mph 52.9 mph N/A   Unknown
10:30 PM 31.8 °F 15.9 °F 26.1 °F 79% 29.28 in - WSW 38.0 mph 49.5 mph N/A   Unknown
11:30 PM 32 °F - 24 °F 61% 29.32 in - WSW 42.6 mph - -  
11:30 PM 31.6 °F 14.9 °F 23.5 °F 72% 29.32 in - WSW 42.6 mph 52.9 mph N/A   Unknown